sat.trackr.live / text

‹ back to catalog

STARLINK-37157

NORAD 68394 · 2026-063Q

PAYLOAD ACTIVE UNKNOWN

§ Identity

Operator
Country
US
Launch date
2026-03-26
Launch site
AFWTR
Launch vehicle
Mass (kg)
RCS (m²)

Purposes: comms

External: N2YO · Heavens-Above · Gunter

§ Orbital elements

Epoch: 2026-05-25T03:01:59.497248Z

Period
93.91 min
Inclination
97.2854°
Eccentricity
0.0000972
Mean motion
15.33448997 rev/d
Perigee alt
464.9 km
Apogee alt
466.2 km
Semi-major
6,843.7 km
B*
6.9977e-4
RAAN
287.7577°
Arg perigee
96.1570°
Mean anomaly
263.9783°
Rev number
961

§ Raw data

STARLINK-371571 68394U 26063Q   26145.12638307  .00022586  00000+0  69977-3 0  99982 68394  97.2854 287.7577 0000972  96.1570 263.9783 15.33448997  9613

JSON: /api/v1/satellites/68394 · /tle

For live sub-satellite position, see the globe view (requires WebGL).

§ Visibility from observer

Set your observer location to see the next 7 days of passes ≥ 10°. The values pass through the URL so the page stays shareable.

No JS? Fill the form by hand. The geolocation button needs JavaScript.